Dewpoint
-3 -3 -1 -4 -3 -3 -2 -3 -3 -3 -5 0 2 7 6 8 8 9 10 11 11 9 8 7 6 7 8 8 7 7 7 7 7 8 8 9 10 10 8 6 5 6 6 3
-2 -1 -4 -4 -3 -2 -2 -3 -2 -3 -6 -4 1 5 6 6 7 8 9 10 10 10 9 8 7 8 8 6 7 7 8 6 7 8 8 9 9 7 5 5 4 4 2 -2
-1 -3 -4 -3 -3 -2 -2 -2 -2 -2 -5 -2 1 4 7 5 5 6 7 8 9 9 9 8 9 8 7 5 4 5 6 8 8 8 9 9 9 6 5 3 1 -1 -2 -1
-2 -3 -3 -3 -2 -3 -2 -3 -3 -2 -4 -1 -3 -0 2 5 5 4 6 7 8 9 9 8 8 8 8 7 6 6 6 7 7 8 9 9 9 6 5 3 2 0 -1 -0
-4 -2 -2 -2 -3 -3 -3 -2 -2 -2 -0 -0 -0 -0 -1 3 6 5 4 5 7 7 8 7 7 6 7 7 7 7 7 8 7 8 9 9 8 6 5 3 2 1 -0 0
-4 -4 -3 -3 -4 -3 -3 -3 -1 0 1 3 -0 0 1 3 4 4 4 4 4 5 7 7 7 8 8 8 8 8 8 6 7 8 9 8 9 8 5 3 2 1 0 0
-3 -3 -3 -2 -2 -3 -2 -1 2 2 4 3 2 2 1 -2 -1 2 3 3 3 4 5 6 6 7 7 8 7 7 8 7 5 8 8 7 8 8 6 5 6 2 1 1
-0 -0 -2 -2 -2 -2 -1 -0 3 2 4 1 3 3 -1 -2 -2 -2 -2 -1 1 2 3 4 5 5 6 6 7 8 8 9 6 7 8 8 9 8 7 7 6 5 3 2
-0 -1 -1 -0 -0 -2 -2 -1 -2 4 5 5 2 1 -4 -5 -1 1 0 -0 -1 -1 0 2 3 4 5 5 6 6 7 8 8 8 7 7 8 8 8 7 5 5 3 1
-2 -1 1 0 -0 -1 -2 -1 1 2 4 5 2 1 -2 -3 -1 1 2 1 1 2 0 0 2 3 4 4 4 6 6 7 7 8 7 7 9 8 9 8 6 4 2 0
-0 -2 -2 2 1 -1 -0 -1 -0 1 2 3 3 1 -2 -3 -2 -3 -2 -1 0 1 2 2 2 3 3 4 5 5 4 5 6 8 8 7 8 8 9 9 6 4 1 1
0 -0 1 -0 -2 -1 -2 -1 -0 3 1 3 3 1 -4 -5 -5 -6 -5 -4 -2 0 1 3 3 3 3 3 4 5 5 6 7 7 7 6 6 8 8 6 5 2 1 -3
1 -0 1 -1 -2 -1 -0 -1 -0 0 1 3 3 2 -5 -4 -5 -5 -6 -6 -3 -1 1 1 3 4 4 6 6 6 6 6 6 6 6 6 8 8 6 5 4 2 -1 -5
-3 1 -2 -1 -3 -0 1 -0 0 0 3 2 2 -0 -4 -5 -4 -5 -6 -7 -5 -2 1 1 2 4 7 8 8 7 6 7 8 6 6 6 7 6 5 5 3 -0 -4 -6
-1 -0 -1 -2 -2 0 0 -0 1 0 0 1 0 -0 -2 -3 -4 -5 -6 -5 -1 2 3 4 5 6 8 8 9 9 8 8 9 9 8 7 6 5 5 3 0 -3 -3 -6
0 1 -1 2 1 1 1 -0 -0 -1 -1 -1 -1 -1 -4 -4 -3 -3 -3 -0 1 1 1 1 1 1 1 1 2 2 2 3 5 7 7 6 5 5 5 2 -3 -3 -5 -5
1 2 2 2 1 0 2 1 0 -0 -1 -1 0 -2 -3 -2 -1 -1 -1 -0 -1 -1 -1 -2 -2 -2 -2 -3 -3 -3 -1 1 4 5 6 5 5 4 4 -1 -3 -4 -5 -5
1 1 1 2 1 2 -0 -2 -2 -1 -2 -3 -3 -3 -2 -1 -1 -1 -1 -1 -1 -2 -2 -2 -1 -1 -1 -2 -2 -1 0 2 3 4 5 5 3 2 -1 -2 -3 -4 -4 -4
1 1 3 3 3 0 -0 -2 -1 -1 -2 -3 -2 0 -0 0 1 1 -0 -1 -1 -1 -1 -0 -0 -0 -0 -0 -1 -1 -0 3 4 4 3 2 1 0 -1 -3 -4 -2 -2 -2
1 1 3 1 3 3 1 -2 -4 -4 -0 -2 0 1 1 -1 -1 1 -0 -1 -1 -0 -0 -0 0 0 0 0 -0 -0 1 2 2 1 1 0 -1 -2 -2 -2 -1 -1 -1 -1
3 2 3 1 2 2 -0 -3 -5 -1 -0 -2 -0 1 0 -2 -3 -0 -0 -1 -1 -0 -0 -0 -0 0 -0 -1 -0 -0 0 0 -0 -1 -1 -2 -2 -2 -1 -1 -1 -1 -1 -1
5 5 3 1 1 5 -3 -3 -1 -1 -4 -3 -1 0 -1 -1 -0 0 -0 -1 -1 -0 -1 -1 -1 -2 -2 -2 -1 -1 -2 -3 -3 -3 -3 -2 -1 -0 -1 -1 -2 -4 -6 -9
4 3 4 3 3 -0 -2 -3 -5 -5 -4 -3 -1 -1 -2 -2 -0 -0 -1 -1 -1 -2 -2 -3 -3 -3 -4 -3 -3 -3 -3 -2 -1 -1 -3 -7 -10 -12 -11 -12 -13 -14 -14 -13
1 0 1 1 0 0 -0 -2 -2 -3 -3 -3 -2 -2 -2 -2 -1 -1 -1 -2 -2 -3 -4 -4 -4 -4 -3 -3 -3 -4 -4 -7 -10 -13 -14 -14 -15 -15 -14 -13 -13 -12 -12 -11
2 2 3 1 3 3 1 -0 -1 -2 -2 -2 -2 -2 -1 -1 -1 -1 -2 -3 -4 -4 -4 -3 -2 -3 -4 -6 -8 -10 -11 -12 -13 -13 -13 -13 -12 -12 -12 -11 -10 -10 -9 -7
2 2 3 3 1 -0 -2 -0 -1 -1 -1 -1 -1 0 -1 -1 -1 -2 -3 -4 -3 -2 -2 -3 -4 -6 -7 -9 -10 -10 -10 -11 -12 -12 -11 -11 -10 -10 -10 -11 -13 -16 -19 -22
Wind_Speed
2 4 5 8 6 2 1 2 1 2 3 5 5 5 10 18 17 15 23 25 27 29 26 27 27 28 27 27 26 28 26 26 25 26 24 25 25 24 21 18 17 17 17 17
5 5 8 5 3 4 5 2 2 2 3 1 4 4 2 9 16 24 28 29 31 29 26 29 30 30 30 28 29 30 30 29 29 29 27 27 21 21 19 18 19 19 18 16
5 5 1 5 4 4 3 1 2 3 2 4 6 5 2 4 7 18 26 31 31 34 31 32 33 32 30 31 32 31 31 31 30 28 28 27 24 22 21 22 23 23 21 19
5 4 5 5 5 5 1 3 0 4 3 2 1 3 5 6 8 7 22 32 35 34 34 33 33 34 34 32 30 29 30 31 32 32 32 31 29 29 26 24 25 24 22 20
7 3 4 3 6 4 4 5 2 3 3 4 1 4 6 2 9 14 20 35 40 40 39 38 38 37 35 33 32 30 32 34 35 35 35 33 30 30 26 25 25 25 24 22
6 1 3 5 3 3 4 3 5 4 3 2 3 4 5 5 15 17 17 29 39 40 43 42 40 40 40 37 36 36 35 35 39 40 38 36 35 33 30 26 27 27 26 25
1 3 3 3 3 4 6 5 3 3 3 4 1 1 8 8 9 8 12 28 40 44 42 42 42 43 42 42 39 39 40 40 41 42 42 38 36 36 32 29 29 31 30 28
6 5 3 1 4 6 4 7 5 3 2 3 2 4 5 5 4 13 21 30 27 37 42 45 45 44 43 42 42 42 43 43 39 40 40 36 37 36 35 34 32 32 33 30
5 5 2 2 2 4 4 3 4 7 3 3 3 7 9 4 5 5 4 6 15 22 30 39 45 45 43 41 43 43 43 43 38 37 31 34 37 40 40 39 36 32 33 31
7 0 1 2 2 1 4 7 4 3 3 3 4 4 5 8 6 5 6 8 7 11 20 26 28 37 41 39 37 39 40 42 40 40 30 30 36 34 39 40 39 36 35 30
5 4 3 0 5 7 2 2 5 5 4 4 1 5 7 7 5 5 6 7 6 9 12 14 17 22 28 30 31 30 33 39 40 40 32 29 32 36 38 38 35 37 34 27
6 6 5 8 1 2 3 6 6 5 4 1 3 6 5 8 7 8 11 6 6 6 9 13 15 18 21 24 28 28 31 33 30 28 31 31 34 35 32 31 33 35 31 28
8 1 1 8 4 2 3 4 4 5 3 6 5 6 3 6 8 14 10 9 8 6 9 13 16 19 22 28 29 31 26 23 25 27 30 33 36 34 34 33 34 34 31 26
12 4 9 10 7 5 4 6 5 6 4 4 6 7 7 8 8 11 12 10 11 8 7 10 14 19 23 24 26 26 24 28 31 31 31 33 33 36 32 32 35 33 29 22
7 7 5 6 6 5 6 5 8 7 6 6 7 7 9 7 7 10 10 6 3 1 1 3 7 10 14 16 19 21 23 27 31 34 33 33 34 31 30 33 33 31 26 22
0 4 4 2 3 2 4 6 7 5 4 4 5 7 7 3 3 1 4 10 15 15 14 12 11 9 7 5 7 12 16 20 24 27 29 28 30 32 31 32 32 26 24 23
7 7 4 4 2 3 6 7 8 6 5 7 7 10 5 2 3 7 14 17 17 16 15 14 12 10 8 6 5 7 9 13 18 21 23 26 30 33 32 31 30 28 27 24
7 7 3 3 3 1 7 1 4 9 6 5 3 4 8 11 11 12 13 17 17 15 13 12 10 8 7 8 9 10 12 15 15 17 20 24 25 22 24 25 24 23 25 29
2 6 3 5 4 5 4 5 7 8 8 7 6 6 15 20 19 10 9 11 12 10 10 9 9 10 10 11 13 13 12 12 11 12 14 15 15 17 19 20 23 21 19 21
6 7 4 3 4 8 8 5 7 5 4 8 12 10 14 12 4 4 9 9 9 9 8 6 5 5 5 8 10 11 9 6 4 3 6 7 11 17 20 18 15 19 23 27
3 3 5 2 3 7 8 3 10 6 8 20 27 26 22 5 5 16 14 10 7 5 5 4 2 3 4 4 5 6 7 8 7 5 6 9 10 11 14 18 20 23 26 22
7 7 4 3 3 7 11 5 9 7 3 28 30 28 19 12 17 17 13 11 8 6 6 6 6 8 10 11 8 12 15 15 12 9 5 1 7 13 13 12 11 11 15 19
3 7 6 9 7 5 15 5 16 9 15 27 31 24 21 21 20 19 17 14 11 10 9 10 11 14 15 13 11 12 12 7 3 2 3 4 5 7 9 11 14 17 19 22
3 4 4 3 4 6 9 16 11 15 25 28 27 26 24 24 24 23 19 16 14 13 12 11 11 12 12 9 7 7 6 4 4 4 6 8 10 11 13 15 17 19 21 23
4 9 7 3 3 2 10 15 16 19 22 24 22 25 26 26 26 22 21 18 16 14 12 10 9 9 10 7 6 6 4 4 5 7 9 11 13 15 17 19 21 23 23 24
7 7 6 7 15 12 10 20 21 23 24 24 25 24 22 23 25 23 21 18 16 15 13 11 9 8 9 6 4 3 5 7 9 11 12 15 17 20 23 26 29 28 30 31
Wind_Direction
45 72 226 225 193 161 329 284 260 284 246 126 221 161 196 181 192 196 210 210 213 216 208 204 203 207 205 206 206 203 203 199 200 205 207 207 208 211 213 233 232 220 212 209
35 237 236 186 183 189 211 195 277 214 345 97 143 221 162 186 206 210 204 212 219 221 217 208 206 206 207 205 206 208 211 212 212 217 215 217 212 215 233 224 212 211 209 212
157 240 107 172 173 180 219 95 72 249 38 53 104 348 205 228 229 226 225 220 219 223 219 212 212 211 209 207 208 209 212 216 219 217 214 217 222 226 219 215 213 213 212 216
230 264 235 254 185 189 24 148 129 279 110 191 164 248 258 225 229 224 219 222 225 226 227 221 217 217 215 214 214 216 217 219 223 221 220 224 229 227 229 224 219 217 218 223
246 267 230 204 232 160 238 76 74 10 98 96 263 79 266 168 237 240 227 224 226 227 227 225 226 224 219 216 216 221 223 224 225 224 226 228 233 237 240 224 223 224 226 230
238 282 188 227 197 191 103 61 44 53 51 46 299 123 281 194 218 235 230 233 230 230 230 232 232 230 227 222 220 222 225 229 229 228 230 232 236 240 234 229 230 229 231 236
302 242 270 249 97 38 75 66 338 344 13 216 352 63 240 255 249 243 239 226 232 231 230 229 230 229 231 227 223 224 227 230 229 228 233 237 236 240 240 243 244 236 237 240
165 292 203 262 157 179 182 155 154 234 195 275 313 237 256 217 298 270 258 258 243 236 234 230 233 234 234 234 230 228 229 232 232 233 240 242 238 240 240 245 248 240 242 243
154 257 280 234 96 128 206 118 161 106 16 47 269 297 302 319 339 320 307 264 233 235 230 233 235 236 236 237 237 234 234 235 235 236 251 250 242 244 244 246 242 243 239 240
206 221 216 291 86 138 216 152 83 17 161 234 267 276 240 308 314 305 314 263 245 222 220 229 236 235 234 239 241 240 240 242 242 241 255 255 245 252 247 247 239 235 235 238
132 126 255 4 205 192 153 132 64 116 133 175 213 260 220 237 251 279 268 279 257 240 235 225 229 234 239 244 245 250 247 246 248 249 260 262 257 254 251 243 235 235 235 244
195 146 193 206 204 298 166 175 142 134 211 137 164 266 246 238 259 293 300 309 306 245 238 226 226 229 227 231 237 237 241 249 254 257 261 259 260 253 246 236 235 233 240 239
180 190 56 329 337 15 202 182 132 106 73 188 149 261 326 295 273 262 268 293 309 279 234 236 234 235 237 238 241 243 251 254 256 256 258 260 251 247 240 234 236 233 237 234
139 143 172 215 215 174 194 185 175 143 129 183 216 265 289 281 292 290 274 288 296 271 249 242 245 249 251 251 246 252 262 261 255 263 263 259 252 238 234 240 233 234 230 229
134 195 182 208 204 193 213 196 168 183 198 168 248 205 255 263 265 283 292 223 232 225 263 288 279 271 266 268 269 272 276 273 269 266 258 253 240 235 241 235 233 230 231 223
290 184 174 150 134 167 229 230 189 211 176 240 239 255 225 286 271 99 121 114 98 86 80 74 69 64 48 3 319 303 301 299 293 283 269 255 247 243 243 238 232 234 224 216
149 132 129 218 15 57 330 222 211 220 206 173 197 223 158 125 94 110 123 110 97 90 86 80 71 61 49 21 348 322 304 301 293 284 270 258 252 246 246 231 229 224 216 212
139 114 98 166 41 250 241 205 210 218 232 221 262 212 166 147 113 103 110 110 103 96 88 81 73 62 38 4 342 325 307 298 288 274 264 258 254 248 234 232 224 209 205 208
87 120 106 144 192 294 278 199 176 178 259 195 197 144 138 134 109 73 107 115 110 100 88 72 56 37 13 351 343 335 320 304 290 268 259 255 248 240 226 203 199 198 213 233
68 66 119 135 158 217 228 231 176 109 268 179 153 161 162 160 107 195 154 133 118 104 86 65 49 25 357 352 357 347 345 346 327 265 242 225 199 185 184 190 208 227 258 268
64 25 146 121 209 285 245 219 144 130 238 174 171 169 169 168 169 152 159 142 126 114 100 85 72 16 38 36 30 48 59 71 85 110 150 169 187 212 242 258 271 279 287 290
156 148 177 91 72 280 182 118 169 214 201 179 178 177 175 158 147 152 157 155 148 136 117 100 88 82 73 67 59 87 92 98 106 113 123 226 285 282 287 287 286 290 292 292
198 178 179 180 207 218 191 212 218 227 183 180 179 182 179 163 162 163 162 158 148 136 122 107 97 97 94 92 87 98 101 107 97 35 354 351 343 334 319 308 304 301 299 298
254 147 156 111 214 226 224 221 225 197 185 180 182 179 181 175 170 166 163 153 146 134 125 118 114 108 105 102 99 89 90 74 42 11 351 334 324 317 312 308 307 305 303 301
192 136 162 275 273 267 237 214 210 195 187 179 181 186 185 177 169 167 157 150 144 140 132 130 123 115 106 103 94 86 69 32 357 343 332 324 318 315 312 309 309 308 307 306
194 169 166 216 191 181 197 199 187 182 180 185 186 175 175 179 169 163 152 148 146 142 137 134 124 120 113 107 84 45 8 350 343 337 334 331 326 322 319 315 312 309 308 307
Height
1497 1503 1508 1499 1498 1497 1498 1500 1498 1493 1489 1494 1498 1501 1500 1502 1507 1509 1508 1510 1511 1513 1516 1519 1522 1526 1529 1531 1535 1537 1540 1542 1545 1546 1549 1553 1556 1559 1561 1561 1564 1566 1567 1570
1501 1506 1494 1491 1494 1495 1497 1498 1500 1495 1491 1494 1501 1499 1500 1501 1501 1503 1504 1506 1507 1510 1513 1517 1519 1522 1524 1527 1530 1533 1536 1539 1541 1545 1547 1551 1554 1557 1558 1559 1561 1564 1565 1566
1501 1493 1490 1488 1493 1495 1494 1493 1496 1499 1495 1498 1501 1507 1502 1500 1500 1502 1503 1504 1506 1507 1509 1512 1515 1517 1520 1521 1524 1528 1533 1537 1540 1542 1544 1548 1550 1553 1554 1556 1558 1561 1562 1563
1495 1487 1488 1487 1490 1491 1493 1489 1492 1494 1500 1512 1502 1520 1506 1501 1500 1498 1499 1499 1499 1502 1505 1509 1510 1513 1516 1520 1523 1526 1529 1533 1537 1540 1542 1544 1545 1548 1550 1552 1555 1557 1559 1559
1492 1485 1487 1489 1486 1482 1489 1486 1491 1492 1499 1504 1504 1514 1504 1501 1501 1493 1490 1491 1493 1495 1498 1501 1503 1506 1510 1516 1519 1523 1526 1530 1532 1535 1538 1541 1543 1545 1547 1549 1551 1553 1555 1556
1485 1482 1484 1483 1481 1480 1482 1488 1496 1502 1507 1524 1504 1512 1510 1503 1486 1479 1483 1485 1486 1489 1492 1496 1500 1505 1507 1511 1515 1518 1521 1524 1528 1532 1535 1537 1539 1541 1543 1544 1547 1549 1550 1552
1484 1482 1480 1479 1482 1483 1487 1499 1519 1519 1530 1527 1507 1512 1499 1479 1476 1477 1475 1476 1476 1480 1485 1489 1493 1496 1500 1504 1507 1511 1516 1519 1523 1527 1530 1531 1533 1535 1538 1539 1541 1544 1545 1546
1497 1502 1480 1476 1479 1487 1491 1497 1523 1522 1535 1516 1508 1511 1492 1474 1474 1472 1470 1469 1472 1474 1476 1481 1484 1488 1493 1498 1502 1506 1510 1513 1518 1522 1525 1526 1528 1531 1532 1533 1534 1537 1539 1540
1496 1493 1479 1478 1478 1483 1491 1497 1496 1521 1532 1530 1517 1500 1482 1472 1471 1470 1469 1466 1467 1468 1471 1475 1479 1482 1487 1493 1496 1500 1504 1508 1513 1517 1519 1519 1522 1525 1526 1528 1531 1531 1534 1535
1480 1490 1482 1480 1479 1481 1483 1486 1504 1515 1516 1521 1516 1510 1502 1479 1472 1470 1469 1468 1466 1468 1469 1472 1474 1477 1482 1486 1491 1496 1500 1503 1507 1510 1513 1515 1516 1518 1520 1521 1523 1526 1528 1530
1474 1482 1489 1483 1484 1483 1487 1490 1498 1503 1516 1521 1531 1512 1482 1475 1470 1470 1467 1465 1466 1467 1468 1469 1472 1475 1479 1483 1488 1492 1495 1498 1502 1506 1509 1510 1511 1512 1513 1515 1518 1521 1523 1525
1469 1481 1500 1483 1474 1474 1474 1482 1490 1513 1508 1525 1529 1510 1470 1470 1469 1467 1465 1464 1465 1466 1468 1469 1471 1474 1477 1481 1484 1487 1490 1494 1499 1502 1503 1505 1506 1507 1509 1512 1516 1518 1520 1522
1466 1483 1504 1492 1481 1477 1477 1479 1484 1494 1505 1511 1524 1503 1468 1468 1466 1463 1464 1463 1464 1464 1466 1467 1469 1471 1474 1477 1481 1484 1489 1493 1494 1496 1497 1498 1498 1501 1504 1507 1511 1513 1516 1517
1454 1473 1478 1487 1481 1478 1480 1477 1481 1484 1509 1503 1505 1485 1472 1468 1468 1463 1462 1463 1463 1463 1464 1465 1467 1469 1472 1476 1480 1484 1486 1487 1488 1489 1489 1490 1491 1494 1500 1504 1507 1509 1511 1512
1453 1469 1470 1467 1467 1470 1469 1467 1478 1480 1479 1488 1480 1486 1471 1466 1465 1462 1460 1460 1461 1462 1463 1465 1468 1471 1473 1476 1477 1480 1481 1481 1483 1483 1485 1487 1490 1494 1498 1500 1502 1504 1506 1510
1453 1465 1465 1468 1468 1467 1468 1466 1470 1472 1472 1474 1475 1477 1462 1463 1462 1461 1462 1461 1461 1462 1463 1465 1467 1469 1472 1473 1474 1476 1476 1477 1478 1478 1481 1485 1489 1491 1493 1496 1500 1504 1506 1507
1454 1466 1475 1475 1478 1472 1484 1470 1466 1465 1462 1462 1473 1463 1460 1463 1463 1462 1462 1463 1464 1465 1467 1467 1469 1472 1472 1473 1474 1475 1475 1474 1474 1476 1478 1481 1483 1485 1488 1492 1494 1497 1500 1502
1454 1460 1475 1490 1486 1495 1458 1453 1454 1459 1458 1457 1457 1456 1455 1459 1463 1465 1465 1465 1466 1468 1469 1470 1472 1473 1473 1473 1473 1472 1473 1472 1472 1473 1475 1476 1479 1483 1487 1490 1493 1496 1495 1491
1441 1455 1477 1481 1486 1470 1452 1452 1455 1456 1455 1451 1453 1455 1458 1460 1460 1467 1468 1468 1469 1470 1471 1471 1471 1471 1472 1473 1473 1472 1471 1471 1471 1472 1473 1476 1479 1482 1485 1487 1489 1490 1492 1492
1444 1449 1460 1486 1483 1482 1455 1440 1441 1443 1460 1445 1446 1452 1455 1458 1472 1469 1468 1469 1470 1470 1470 1470 1471 1473 1474 1473 1473 1473 1471 1471 1471 1473 1475 1477 1480 1482 1484 1487 1488 1491 1492 1492
1459 1466 1468 1492 1483 1465 1442 1438 1441 1459 1451 1436 1440 1446 1452 1456 1456 1460 1465 1468 1469 1469 1470 1471 1472 1473 1473 1473 1473 1472 1472 1473 1475 1477 1479 1481 1483 1485 1487 1488 1489 1488 1486 1485
1442 1461 1473 1481 1483 1465 1433 1440 1446 1434 1429 1432 1438 1442 1448 1451 1454 1458 1462 1464 1467 1468 1470 1471 1472 1473 1473 1474 1475 1475 1475 1478 1480 1482 1484 1485 1485 1485 1485 1484 1484 1483 1481 1479
1436 1432 1446 1447 1444 1428 1428 1428 1428 1427 1426 1431 1435 1440 1445 1448 1452 1456 1460 1463 1466 1468 1471 1472 1473 1473 1475 1477 1478 1478 1480 1482 1482 1483 1483 1483 1483 1482 1482 1481 1480 1478 1477 1474
1425 1425 1432 1435 1425 1425 1424 1425 1426 1426 1427 1430 1434 1438 1442 1444 1450 1454 1459 1463 1466 1469 1471 1473 1474 1475 1476 1478 1479 1480 1481 1482 1482 1482 1482 1481 1481 1480 1479 1478 1476 1474 1473 1470
1416 1420 1427 1428 1422 1423 1421 1422 1423 1425 1428 1430 1434 1437 1439 1443 1448 1453 1458 1463 1467 1469 1471 1474 1475 1476 1477 1479 1480 1481 1481 1482 1482 1481 1481 1480 1479 1477 1476 1474 1472 1470 1469 1466
1406 1409 1420 1417 1405 1409 1412 1417 1421 1423 1425 1429 1432 1437 1441 1445 1447 1453 1459 1464 1468 1470 1473 1474 1476 1477 1478 1479 1480 1480 1481 1480 1480 1480 1479 1478 1476 1474 1472 1468 1465 1465 1462 1458